K9JDN Weather Reports


Display with metric or nautical units.
time (UTC)temp
F
wind
direction
speed
MPH
gust
MPH
rain 1hr
in
rain 24hr
in
rain mn
in
humidity
%
barometer
mb
20260504110109 60 139 1.0 2.0 0.00 0.08 0.00 76 1009.7
20260504100109 60 125 0.0 1.0 0.00 0.08 0.00 76 1009.9
20260504081559 60 0 0.0 2.0 0.00 0.08 0.00 82 1009.8
20260504060106 62 111 0.0 4.0 0.00 0.08 0.00 78 1010.8
20260504050120 60 0 0.0 0.0 0.07 0.08 0.00 75 1010.2
20260504044557 61 0 0.0 0.0 0.08 0.08 0.08 78 1009.8
20260504043108 61 0 0.0 0.0 0.08 0.08 0.08 71 1009.7
20260504041601 63 0 0.0 2.0 0.08 0.08 0.08 76 1010.3
20260504040106 67 0 1.0 4.0 0.01 0.01 0.01 58 1011.5
20260504034614 68 0 0.0 0.0 0.00 0.00 0.00 60 1010.7
20260504033102 68 0 0.0 3.0 0.00 0.00 0.00 58 1010.9
20260504031611 69 0 0.0 0.0 0.00 0.00 0.00 57 1011.0
20260504030115 69 0 0.0 0.0 0.00 0.00 0.00 56 1011.1
20260504024558 69 0 0.0 0.0 0.00 0.00 0.00 55 1011.0
20260504023059 69 0 0.0 0.0 0.00 0.00 0.00 55 1010.9
20260504021606 69 0 0.0 0.0 0.00 0.00 0.00 55 1011.0
20260504020058 70 0 0.0 0.0 0.00 0.00 0.00 54 1010.9
20260504014559 70 0 0.0 0.0 0.00 0.00 0.00 54 1010.7
20260504013059 71 0 0.0 0.0 0.00 0.00 0.00 52 1010.6
20260504011559 71 0 0.0 0.0 0.00 0.00 0.00 51 1010.4
20260504010059 71 0 0.0 2.0 0.00 0.00 0.00 51 1010.2
20260504004600 72 0 0.0 2.0 0.00 0.00 0.00 50 1010.3
20260504003057 73 7 0.0 1.0 0.00 0.00 0.00 49 1010.3
20260504001559 73 332 0.0 3.0 0.00 0.00 0.00 42 1010.4
20260504000137 74 0 0.0 2.0 0.00 0.00 0.00 47 1010.3
20260503234604 75 148 0.0 3.0 0.00 0.00 0.00 45 1010.6
20260503233057 75 246 0.0 4.0 0.00 0.00 0.00 39 1010.4
20260503231558 76 38 0.0 5.0 0.00 0.00 0.00 44 1010.6
20260503230059 77 302 2.0 7.0 0.00 0.00 0.00 42 1010.8
20260503224559 77 19 2.0 12.0 0.00 0.00 0.00 42 1010.9
20260503223057 77 88 0.0 5.0 0.00 0.00 0.00 36 1010.9
20260503221603 77 274 1.0 6.0 0.00 0.00 0.00 40 1011.0
20260503220057 77 168 1.0 7.0 0.00 0.00 0.00 35 1011.2
20260503214557 77 250 2.0 12.0 0.00 0.00 0.00 34 1011.2
20260503213058 77 289 2.0 9.0 0.00 0.00 0.00 34 1011.6
20260503211603 76 200 2.0 5.0 0.00 0.00 0.00 36 1011.9
20260503210057 76 93 1.0 4.0 0.00 0.00 0.00 36 1011.9
20260503204557 76 22 1.0 4.0 0.00 0.00 0.00 42 1012.1
20260503203109 75 295 1.0 6.0 0.00 0.00 0.00 35 1012.4
20260503201600 75 145 1.0 5.0 0.00 0.00 0.00 39 1012.9
20260503200057 75 152 1.0 5.0 0.00 0.00 0.00 37 1013.4
20260503194602 74 168 0.0 3.0 0.00 0.00 0.00 37 1013.8
20260503193100 74 96 1.0 3.0 0.00 0.00 0.00 44 1014.3
20260503191557 73 155 1.0 5.0 0.00 0.00 0.00 36 1014.5
20260503190057 73 127 2.0 6.0 0.00 0.00 0.00 36 1014.7
20260503184616 72 103 1.0 6.0 0.00 0.00 0.00 37 1015.1
20260503183101 71 240 1.0 5.0 0.00 0.00 0.00 38 1015.4
20260503181559 70 233 1.0 5.0 0.00 0.00 0.00 45 1015.9
20260503180058 70 293 1.0 8.0 0.00 0.00 0.00 41 1016.6
20260503174601 69 280 0.0 7.0 0.00 0.00 0.00 50 1017.2
20260503173059 67 77 2.0 8.0 0.00 0.00 0.00 44 1017.5
20260503171613 67 305 2.0 6.0 0.00 0.00 0.00 46 1017.6
20260503170105 66 227 2.0 8.0 0.00 0.00 0.00 45 1017.8
20260503160108 63 257 1.0 8.0 0.00 0.00 0.00 49 1019.1